STARLINK-30545

operational
NORAD ID: 58000 Int'l Des: 2023-153 Owner: SPXS Country: US Constellation: starlink
LEOCIRCULAR

Über STARLINK-30545

Beschreibung wird geladen...

Live-Position

3D-Globus wird geladen...

Nächste Überflüge

Höhenverlauf

Altitude vs Time

uPlot chart will show altitude changes over time

Zweizeiliger Elementsatz

1 58000U 23153K 25251.92279360 -.00000213 00000-0 -68171-6 0 9997
2 58000 43.0060 336.4428 0001402 271.7900 88.2782 15.02527536107538
Epoch: 8. Sept. 2025 • Age: 12 hours

Aktueller Status

Höhe 563.0 km
Geschwindigkeit 7.58 km/s
Subsatellitenpunkt -19.41°S, 33.44°E
Startdatum 5. Okt. 2023
Alter 1.9 years
Typ internet

Technische Details

Klassifizierung Payload
Masse 730.00 kg
Trockenmasse 700.00 kg
Gesamtmasse 730.00 kg
Länge 0.30 m
Durchmesser 4.10 m
Spannweite 29.00 m
Form Box + pan
Hersteller SPXS
Bus-Typ Starlink V2M
Phasenstatus In Orbit
Besitzer/Staat SPXS/US

Große Konstellationen

Loading constellations...